[[{"header":{"parameterUnit":"m.s-1","parameterCategory":1,"la1":30.2991,"la2":30.254,"lo1":-89.0895,"lo2":-89.0444,"dy":0.0017,"dx":0.0017,"nx":28,"ny":28,"refTime":"2023-08-24T09:00:00:Z","depth":0,"parameterNumber":2,"parameterNumberName":"U-component_of_WINDS"},"data":[0,0,0,0,0,0,0,0,0,0,0,0,0,0,0,0,0,0,0,0,0,0,0,0,0,0,0,0,0,0,0,0,0,0,0,0,0,0,0,0,0,0,0,0,0,0,0,0,0,0,0,0,0,0,0,0,0,0,-0.6086,-0.6085,0,-0.6021,-0.602,-0.602,-0.5942,-0.5941,-0.594,-0.5938,-0.5872,-0.5871,-0.5871,0,0,0,0,0,0,0,0,0,0,0,0,0,-0.6141,-0.6141,-0.6086,-0.6085,-0.6084,-0.6021,-0.602,-0.602,-0.5942,-0.5941,-0.5939,-0.5938,-0.5872,-0.5871,-0.5871,0,0,0,0,0,0,0,0,0,0,0,0,0,-0.6101,-0.614,-0.6086,-0.6038,-0.6033,-0.6022,-0.602,-0.6019,-0.5943,-0.5941,-0.5939,-0.5937,-0.5872,-0.5871,-0.587,-0.5901,0,0,-0.5868,-0.5867,0,0,0,0,0,0,0,0,-0.6103,-0.6099,-0.6046,-0.6041,-0.6036,-0.5988,-0.6015,-0.598,-0.5943,-0.5977,-0.5938,-0.5936,-0.5912,-0.5908,-0.5899,-0.5898,-0.5895,-0.5867,-0.5867,-0.5866,-0.5866,0,0,0,0,0,0,0,-0.6106,-0.6101,-0.606,-0.6045,-0.6039,-0.6019,-0.6012,-0.6008,-0.5955,-0.5974,-0.5968,-0.5961,-0.5909,-0.5901,-0.5897,-0.5894,-0.5867,-0.5867,-0.5866,-0.5866,-0.5913,-0.5914,0,0,0,0,0,0,-0.6116,-0.6104,-0.6062,-0.6058,-0.6066,-0.602,-0.6011,-0.6005,-0.5955,-0.5946,-0.5963,-0.5958,-0.5903,-0.5899,-0.5895,-0.5927,-0.5866,-0.5866,-0.5865,-0.5911,-0.5913,-0.5915,0,0,0,0,0,0,-0.6118,-0.6113,-0.6065,-0.608,-0.6072,-0.6021,-0.6014,-0.6005,-0.5996,-0.5947,-0.5937,-0.5965,-0.5901,-0.5896,-0.59,-0.5923,-0.5865,-0.5864,-0.5909,-0.5912,-0.5914,-0.5991,0,0,0,0,0,0,-0.612,-0.6114,-0.6126,-0.608,-0.6071,-0.6072,-0.6016,-0.6005,-0.5995,-0.5988,-0.5946,-0.5937,-0.59,-0.5902,-0.5899,-0.5921,-0.5863,-0.5906,-0.591,-0.5913,-0.5986,-0.5996,-0.6005,0,0,0,0,0,-0.6122,-0.615,-0.6127,-0.6122,-0.6085,-0.6073,-0.6068,-0.6025,-0.5997,-0.6008,-0.5976,-0.5938,-0.5921,-0.5903,-0.5899,-0.5921,-0.5905,-0.5909,-0.5913,-0.5982,-0.5994,-0.6004,0,0,0,0,0,0,-0.6199,-0.6143,-0.6117,-0.6131,-0.6107,-0.606,-0.6072,-0.6039,-0.6022,-0.6016,-0.5963,-0.5954,-0.5964,-0.5942,-0.5923,-0.5947,-0.5907,-0.5911,-0.5961,-0.5972,-0.5981,-0.5987,-0.5863,0,0,0,0,0,-0.6218,-0.6213,-0.6164,-0.6182,-0.6171,-0.6124,-0.6117,-0.6086,-0.6059,-0.6049,-0.6017,-0.5993,-0.5982,-0.5976,-0.5963,-0.5982,-0.5972,-0.5996,-0.6005,-0.6013,-0.6017,-0.6025,-0.6035,-0.5929,-0.5929,-0.5928,0,0,-0.6256,-0.6225,-0.6226,-0.6196,-0.6174,-0.6171,-0.6116,-0.6115,-0.6111,-0.6049,-0.605,-0.6026,-0.5995,-0.6007,-0.6011,-0.5989,-0.6043,-0.6018,-0.6024,-0.6024,-0.603,-0.6041,-0.605,-0.5931,-0.5931,-0.593,0,0,-0.6325,-0.6301,-0.6312,-0.6291,-0.6259,-0.6227,-0.623,-0.6188,-0.6169,-0.617,-0.6123,-0.6118,-0.61,-0.608,-0.6067,-0.6127,-0.6092,-0.6124,-0.6173,-0.6182,-0.619,-0.6197,-0.6219,-0.6227,-0.6128,-0.6128,-0.6129,0,-0.6377,-0.637,-0.6322,-0.6324,-0.6312,-0.6255,-0.6266,-0.6248,-0.6213,-0.6207,-0.6183,-0.6159,-0.6134,-0.614,-0.6155,-0.6147,-0.6148,-0.6129,-0.6193,-0.62,-0.6206,-0.6226,-0.6234,-0.6133,-0.6132,-0.6132,-0.6131,0,-0.6435,-0.6431,-0.6444,-0.6412,-0.6402,-0.6408,-0.6362,-0.6357,-0.6326,-0.6297,-0.6298,-0.6266,-0.6246,-0.6244,-0.6214,-0.6247,-0.6234,-0.6203,-0.6162,-0.6221,-0.6239,-0.6246,-0.6139,-0.6137,-0.6136,-0.6135,0,0,-0.6551,-0.6493,-0.6498,-0.6483,-0.6442,-0.6438,-0.6442,-0.6422,-0.6419,-0.6396,-0.6398,-0.6383,-0.6354,-0.634,-0.6306,-0.6314,-0.6364,-0.6281,-0.628,-0.6298,-0.6398,-0.6422,-0.6432,-0.634,-0.6341,-0.6342,-0.64,0,-0.6613,-0.6616,-0.6573,-0.6588,-0.6584,-0.6529,-0.6532,-0.6507,-0.648,-0.6471,-0.644,-0.6432,-0.6393,-0.6384,-0.6389,-0.6357,-0.6384,-0.6352,-0.6341,-0.6341,-0.6352,-0.6441,-0.6467,-0.6524,-0.6407,-0.6408,-0.6409,0,-0.6685,-0.6667,-0.6682,-0.664,-0.6637,-0.664,-0.6618,-0.6611,-0.6582,-0.6561,-0.6545,-0.6507,-0.6507,-0.6468,-0.6467,-0.6447,-0.644,-0.6423,-0.6424,-0.6422,-0.638,-0.6442,-0.6541,-0.655,-0.642,-0.6419,-0.6418,0,-0.6769,-0.6748,-0.6754,-0.6742,-0.6694,-0.6698,-0.6678,-0.6647,-0.6637,-0.6618,-0.6611,-0.6592,-0.6582,-0.6568,-0.6525,-0.6501,-0.653,-0.6487,-0.6513,-0.6514,-0.6522,-0.6522,-0.6621,-0.6516,-0.6516,-0.6516,-0.6516,0,-0.6843,-0.6854,-0.6791,-0.6795,-0.6805,-0.6756,-0.6767,-0.6742,-0.6715,-0.6712,-0.6663,-0.6662,-0.6606,-0.6598,-0.6565,-0.6569,-0.6565,-0.6548,-0.6539,-0.6553,-0.6555,-0.6548,-0.6543,-0.6518,-0.6518,-0.6517,-0.6517,0,-0.6939,-0.6897,-0.69,-0.6854,-0.6842,-0.6852,-0.6813,-0.6814,-0.6783,-0.6781,-0.6777,-0.6729,-0.6717,-0.6673,-0.6651,-0.6628,-0.6644,-0.6626,-0.6654,-0.6648,-0.6677,-0.6675,-0.6775,-0.6786,-0.6674,-0.6675,-0.6676,0,-0.6989,-0.6996,-0.6951,-0.6946,-0.6928,-0.692,-0.691,-0.6861,-0.6853,-0.682,-0.6825,-0.681,-0.6795,-0.6778,-0.6741,-0.6724,-0.6706,-0.6742,-0.6703,-0.6716,-0.6707,-0.6707,-0.6708,-0.6751,-0.6752,-0.6753,-0.6754,0,-0.7082,-0.7061,-0.7049,-0.703,-0.7019,-0.7002,-0.6981,-0.6979,-0.6925,-0.6918,-0.6905,-0.6894,-0.6871,-0.6856,-0.6832,-0.6811,-0.6774,-0.6767,-0.6772,-0.6786,-0.6803,-0.6795,-0.6678,-0.6765,-0.6764,-0.6763,-0.6763,-0.6762,-0.7157,-0.7161,-0.713,-0.7118,-0.7097,-0.7079,-0.7078,-0.7047,-0.7035,-0.7013,-0.6984,-0.6976,-0.6945,-0.691,-0.6891,-0.6883,-0.6863,-0.687,-0.6872,-0.6875,-0.6882,-0.6803,-0.6879,-0.6878,-0.6878,-0.6877,-0.6877,0,-0.7248,-0.7225,-0.7215,-0.7188,-0.7178,-0.7144,-0.7119,-0.7113,-0.7106,-0.7081,-0.7067,-0.7053,-0.7038,-0.6999,-0.698,-0.6981,-0.6964,-0.6978,-0.6978,-0.6974,-0.6901,-0.6899,-0.6993,-0.6993,-0.6993,-0.6993,-0.6993,-0.6993,-0.7295,-0.73,-0.7275,-0.7269,-0.7245,-0.7237,-0.7225,-0.7208,-0.7188,-0.7174,-0.7162,-0.7136,-0.7106,-0.7084,-0.7069,-0.7058,-0.7053,-0.7073,-0.7057,-0.699,-0.6979,-0.6968,-0.6966,-0.7073,-0.7073,-0.713,-0.7131,-0.7131]},{"header":{"parameterUnit":"m.s-1","parameterCategory":1,"la1":30.2991,"la2":30.254,"lo1":-89.0895,"lo2":-89.0444,"dy":0.0017,"dx":0.0017,"nx":28,"ny":28,"refTime":"2023-08-24T09:00:00:Z","depth":0,"parameterNumber":3,"parameterNumberName":"V-component_of_WINDS"},"data":[0,0,0,0,0,0,0,0,0,0,0,0,0,0,0,0,0,0,0,0,0,0,0,0,0,0,0,0,0,0,0,0,0,0,0,0,0,0,0,0,0,0,0,0,0,0,0,0,0,0,0,0,0,0,0,0,0,0,-2.122,-2.122,0,-2.1279,-2.128,-2.128,-2.1285,-2.1284,-2.1284,-2.1283,-2.1344,-2.1346,-2.1348,0,0,0,0,0,0,0,0,0,0,0,0,0,-2.111,-2.1112,-2.1219,-2.122,-2.1221,-2.1279,-2.128,-2.1281,-2.1285,-2.1284,-2.1283,-2.1283,-2.1343,-2.1346,-2.1348,0,0,0,0,0,0,0,0,0,0,0,0,0,-2.1162,-2.1112,-2.1219,-2.123,-2.1232,-2.1279,-2.128,-2.1281,-2.1285,-2.1284,-2.1283,-2.1282,-2.1342,-2.1345,-2.1349,-2.1389,0,0,-2.1359,-2.136,0,0,0,0,0,0,0,0,-2.1159,-2.1166,-2.1228,-2.1229,-2.1231,-2.1274,-2.1263,-2.1317,-2.1285,-2.1265,-2.1283,-2.1282,-2.1321,-2.1326,-2.134,-2.1392,-2.1394,-2.1359,-2.1361,-2.1363,-2.1364,0,0,0,0,0,0,0,-2.1155,-2.1163,-2.1243,-2.1229,-2.1231,-2.1232,-2.1238,-2.1274,-2.1298,-2.1267,-2.1267,-2.1274,-2.1322,-2.1336,-2.1341,-2.1395,-2.1359,-2.1362,-2.1364,-2.1365,-2.1485,-2.1487,0,0,0,0,0,0,-2.115,-2.116,-2.1241,-2.1245,-2.1192,-2.1235,-2.1242,-2.1261,-2.1297,-2.1302,-2.1275,-2.1274,-2.1331,-2.1337,-2.1343,-2.1394,-2.1363,-2.1366,-2.1368,-2.1484,-2.1486,-2.1487,0,0,0,0,0,0,-2.1147,-2.1157,-2.1239,-2.1203,-2.1213,-2.1238,-2.1259,-2.1263,-2.1277,-2.1304,-2.1308,-2.1285,-2.1331,-2.1338,-2.1378,-2.1396,-2.1367,-2.137,-2.1483,-2.1485,-2.1486,-2.1496,0,0,0,0,0,0,-2.1144,-2.1156,-2.1171,-2.1203,-2.1215,-2.1273,-2.126,-2.1265,-2.1283,-2.1282,-2.1314,-2.1319,-2.133,-2.1373,-2.1381,-2.14,-2.1373,-2.1481,-2.1484,-2.1486,-2.1494,-2.1497,-2.1501,0,0,0,0,0,-2.114,-2.1171,-2.1172,-2.1182,-2.1235,-2.1274,-2.1281,-2.1293,-2.1284,-2.13,-2.1318,-2.1318,-2.1393,-2.1377,-2.1386,-2.1407,-2.148,-2.1483,-2.1486,-2.1492,-2.1497,-2.1501,0,0,0,0,0,0,-2.1141,-2.1176,-2.1177,-2.1219,-2.1244,-2.1274,-2.1295,-2.1297,-2.1325,-2.1323,-2.1337,-2.1345,-2.1384,-2.1399,-2.1381,-2.1448,-2.1436,-2.144,-2.1437,-2.1442,-2.1445,-2.1441,-2.1376,0,0,0,0,0,-2.1146,-2.1174,-2.1203,-2.1237,-2.125,-2.127,-2.1287,-2.1295,-2.1321,-2.1331,-2.1351,-2.1376,-2.1405,-2.1424,-2.1452,-2.1496,-2.1503,-2.1514,-2.1518,-2.152,-2.1525,-2.155,-2.1556,-2.1496,-2.1496,-2.1496,0,0,-2.1156,-2.1179,-2.1196,-2.1238,-2.1258,-2.1287,-2.1279,-2.131,-2.1332,-2.1336,-2.1375,-2.139,-2.1419,-2.1461,-2.148,-2.1475,-2.1543,-2.1524,-2.1526,-2.1529,-2.1553,-2.1559,-2.1564,-2.1497,-2.1497,-2.1497,0,0,-2.1191,-2.1211,-2.1242,-2.1263,-2.1293,-2.1306,-2.1314,-2.1344,-2.1355,-2.1395,-2.1398,-2.1425,-2.1474,-2.1495,-2.1512,-2.1556,-2.1558,-2.1564,-2.1583,-2.1607,-2.1612,-2.1616,-2.1633,-2.1639,-2.1568,-2.1568,-2.1568,0,-2.1201,-2.1246,-2.1258,-2.129,-2.1309,-2.1314,-2.1346,-2.1365,-2.1403,-2.1416,-2.1409,-2.1472,-2.1492,-2.1539,-2.155,-2.1563,-2.1573,-2.1561,-2.161,-2.1615,-2.1619,-2.1635,-2.1642,-2.1569,-2.1569,-2.1569,-2.1569,0,-2.1257,-2.1287,-2.1309,-2.1346,-2.1368,-2.1399,-2.1417,-2.1437,-2.1443,-2.1458,-2.1498,-2.1522,-2.1556,-2.1567,-2.1573,-2.1616,-2.1612,-2.1607,-2.1595,-2.1625,-2.1641,-2.1647,-2.157,-2.157,-2.157,-2.157,0,0,-2.1294,-2.1338,-2.1346,-2.1364,-2.1397,-2.1422,-2.1454,-2.1487,-2.1505,-2.153,-2.1559,-2.1601,-2.1597,-2.1617,-2.1625,-2.1646,-2.1681,-2.1639,-2.164,-2.1648,-2.1732,-2.1736,-2.1743,-2.1682,-2.1683,-2.1684,-2.173,0,-2.1334,-2.1392,-2.1405,-2.1455,-2.1484,-2.1489,-2.1518,-2.1542,-2.1556,-2.1583,-2.1599,-2.1629,-2.1621,-2.1633,-2.1655,-2.1672,-2.1698,-2.1669,-2.1709,-2.171,-2.1703,-2.1751,-2.1755,-2.1797,-2.1736,-2.1737,-2.1738,0,-2.1388,-2.1416,-2.147,-2.1501,-2.1513,-2.1539,-2.1571,-2.1596,-2.1624,-2.1633,-2.1655,-2.1661,-2.1695,-2.168,-2.1729,-2.1708,-2.1725,-2.1736,-2.1738,-2.1744,-2.1727,-2.1759,-2.1811,-2.1818,-2.1747,-2.1746,-2.1746,0,-2.1412,-2.1463,-2.1502,-2.1516,-2.1553,-2.1571,-2.1587,-2.1614,-2.1633,-2.1661,-2.1674,-2.1706,-2.1723,-2.1748,-2.1762,-2.175,-2.181,-2.1796,-2.1819,-2.1819,-2.1833,-2.1832,-2.1889,-2.1841,-2.1841,-2.1841,-2.1841,0,-2.1456,-2.1489,-2.1513,-2.1537,-2.1574,-2.1589,-2.1625,-2.1641,-2.1665,-2.1692,-2.1698,-2.1724,-2.1741,-2.1769,-2.1781,-2.182,-2.1827,-2.1836,-2.1839,-2.1836,-2.1835,-2.1849,-2.1847,-2.1842,-2.1842,-2.1842,-2.1841,0,-2.149,-2.1507,-2.155,-2.1582,-2.159,-2.1617,-2.1644,-2.1667,-2.1682,-2.1717,-2.1726,-2.1748,-2.1782,-2.1799,-2.184,-2.1848,-2.1893,-2.1893,-2.1884,-2.1885,-2.1908,-2.1907,-2.1978,-2.1989,-2.1931,-2.1932,-2.1932,0,-2.1517,-2.1543,-2.1578,-2.1597,-2.1613,-2.1644,-2.1664,-2.1679,-2.17,-2.1734,-2.1754,-2.1788,-2.1816,-2.187,-2.189,-2.1922,-2.1924,-2.1947,-2.1929,-2.1926,-2.1927,-2.1926,-2.1929,-2.1951,-2.1951,-2.1952,-2.1952,0,-2.1565,-2.1573,-2.1602,-2.1635,-2.1659,-2.1685,-2.1711,-2.1726,-2.1746,-2.1769,-2.1804,-2.1826,-2.1869,-2.1903,-2.1937,-2.1953,-2.1957,-2.1957,-2.1965,-2.1963,-2.1958,-2.1963,-2.1894,-2.1956,-2.1956,-2.1955,-2.1955,-2.1955,-2.1598,-2.1622,-2.165,-2.1683,-2.1704,-2.1728,-2.1752,-2.177,-2.18,-2.1836,-2.1843,-2.188,-2.1908,-2.1954,-2.1972,-2.2001,-2.1996,-2.2007,-2.2009,-2.2012,-2.2014,-2.1952,-2.2007,-2.2007,-2.2007,-2.2007,-2.2007,0,-2.1648,-2.1666,-2.1696,-2.1733,-2.1759,-2.1759,-2.1788,-2.181,-2.1843,-2.1868,-2.1896,-2.1937,-2.197,-2.1993,-2.2027,-2.2046,-2.2049,-2.2055,-2.2054,-2.2058,-2.2016,-2.2007,-2.2052,-2.2052,-2.2052,-2.2052,-2.2052,-2.2052,-2.1677,-2.1717,-2.1728,-2.1779,-2.1798,-2.1835,-2.1851,-2.1874,-2.1895,-2.194,-2.1968,-2.1982,-2.2007,-2.2043,-2.2074,-2.208,-2.2093,-2.21,-2.2106,-2.2066,-2.2061,-2.2057,-2.2048,-2.2102,-2.2102,-2.2146,-2.2147,-2.2147]}]]